TimeEDT,TemperatureF,Dew PointF,Humidity,Sea Level PressureIn,VisibilityMPH,Wind Direction,Wind SpeedMPH,Gust SpeedMPH,PrecipitationIn,Events,Conditions,WindDirDegrees,DateUTC
12:54 AM,64.4,62.6,94,29.85,6.0,SSW,12.7,18.4,N/A,,Clear,200,2012-10-14 04:54:00
1:54 AM,64.9,62.1,90,29.85,5.0,SSW,11.5,-,0.01,Rain,Light Rain,200,2012-10-14 05:54:00
2:54 AM,64.0,62.1,93,29.83,5.0,South,9.2,-,0.02,Rain,Light Rain,190,2012-10-14 06:54:00
3:54 AM,64.0,62.1,93,29.82,4.0,South,8.1,-,0.03,Rain,Rain,190,2012-10-14 07:54:00
4:34 AM,64.4,62.6,94,29.80,4.0,South,9.2,-,0.08,Rain,Light Rain,180,2012-10-14 08:34:00
4:54 AM,64.0,61.0,90,29.79,4.0,South,13.8,19.6,0.09,Rain,Rain,180,2012-10-14 08:54:00
5:02 AM,64.4,60.8,88,29.79,3.0,South,15.0,21.9,0.04,Rain,Heavy Rain,180,2012-10-14 09:02:00
5:24 AM,64.4,62.6,94,29.78,3.0,South,12.7,19.6,0.12,Rain,Heavy Rain,180,2012-10-14 09:24:00
5:28 AM,64.4,62.6,94,29.77,2.5,South,15.0,-,0.14,Rain,Rain,180,2012-10-14 09:28:00
5:54 AM,64.0,62.1,93,29.76,2.5,South,10.4,-,0.18,Rain,Light Rain,170,2012-10-14 09:54:00
6:01 AM,64.4,60.8,88,29.76,7.0,South,11.5,-,0.00,Rain,Light Rain,170,2012-10-14 10:01:00
6:54 AM,64.9,61.0,87,29.73,7.0,South,10.4,-,0.00,,Overcast,170,2012-10-14 10:54:00
7:10 AM,64.4,60.8,88,29.73,8.0,SSE,10.4,-,N/A,,Overcast,160,2012-10-14 11:10:00
7:36 AM,64.4,60.8,88,29.70,8.0,SSE,12.7,-,N/A,,Scattered Clouds,160,2012-10-14 11:36:00
7:54 AM,66.0,61.0,84,29.67,9.0,SSE,13.8,20.7,0.00,Rain,Light Rain,160,2012-10-14 11:54:00
8:20 AM,66.2,60.8,83,29.67,10.0,South,17.3,28.8,0.00,Rain,Light Rain,180,2012-10-14 12:20:00
8:54 AM,66.0,61.0,84,29.65,10.0,South,13.8,23.0,0.00,,Overcast,180,2012-10-14 12:54:00
9:50 AM,55.4,42.8,63,30.09,10.0,Calm,Calm,-,N/A,,Clear,0,2012-10-14 13:50:00
9:54 AM,68.0,61.0,78,29.62,10.0,South,13.8,21.9,0.00,,Mostly Cloudy,190,2012-10-14 13:54:00
10:54 AM,69.1,61.0,75,29.62,10.0,SSW,15.0,26.5,N/A,,Overcast,200,2012-10-14 14:54:00
11:54 AM,70.0,61.0,73,29.62,10.0,SSW,18.4,26.5,N/A,,Overcast,200,2012-10-14 15:54:00
12:03 PM,69.8,60.8,73,29.63,10.0,SSW,20.7,32.2,N/A,,Mostly Cloudy,200,2012-10-14 16:03:00
12:54 PM,70.0,59.0,68,29.60,10.0,SSW,17.3,31.1,N/A,,Overcast,200,2012-10-14 16:54:00
1:45 PM,66.2,60.8,83,29.59,1.2,SSW,18.4,25.3,0.11,Rain,Heavy Rain,210,2012-10-14 17:45:00
1:54 PM,66.9,61.0,81,29.57,3.0,SSW,18.4,28.8,0.20,Rain,Light Rain,210,2012-10-14 17:54:00
2:01 PM,68.0,60.8,78,29.57,10.0,SW,20.7,29.9,0.00,Rain,Light Rain,220,2012-10-14 18:01:00
2:54 PM,70.0,57.9,65,29.53,10.0,SW,23.0,39.1,0.00,,Partly Cloudy,220,2012-10-14 18:54:00
3:54 PM,71.6,55.4,57,29.51,10.0,SW,25.3,35.7,N/A,,Scattered Clouds,220,2012-10-14 19:54:00
4:54 PM,70.0,55.9,61,29.48,10.0,SSW,20.7,34.5,0.00,Rain,Light Rain,210,2012-10-14 20:54:00
5:26 PM,69.8,53.6,56,29.48,10.0,SSW,26.5,42.6,0.00,Thunderstorm,Mostly Cloudy,200,2012-10-14 21:26:00
5:49 PM,69.8,53.6,56,29.46,10.0,SSW,19.6,27.6,0.00,,Overcast,200,2012-10-14 21:49:00
5:54 PM,70.0,54.0,57,29.45,10.0,SSW,26.5,35.7,0.00,,Overcast,200,2012-10-14 21:54:00
6:33 PM,62.6,59.0,88,29.49,2.5,WSW,12.7,24.2,0.10,Rain,Heavy Rain,240,2012-10-14 22:33:00
6:39 PM,62.6,59.0,88,29.48,10.0,SW,15.0,19.6,0.16,Rain,Heavy Rain,220,2012-10-14 22:39:00
6:47 PM,62.6,59.0,88,29.48,10.0,SW,15.0,20.7,0.16,,Overcast,220,2012-10-14 22:47:00
6:54 PM,62.1,59.0,90,29.46,10.0,SSW,15.0,20.7,0.16,,Overcast,210,2012-10-14 22:54:00
7:11 PM,62.6,57.2,82,29.48,10.0,WSW,23.0,33.4,0.00,Rain,Light Rain,240,2012-10-14 23:11:00
7:21 PM,60.8,53.6,77,29.48,10.0,SW,24.2,39.1,0.00,,Overcast,230,2012-10-14 23:21:00
7:54 PM,57.0,53.1,87,29.49,10.0,SW,21.9,39.1,0.00,Rain,Light Rain,230,2012-10-14 23:54:00
8:34 PM,55.4,53.6,94,29.51,3.0,WSW,17.3,27.6,0.01,Rain,Light Rain,240,2012-10-15 00:34:00
8:54 PM,54.0,50.0,86,29.55,6.0,WNW,33.4,48.3,0.01,Rain,Light Rain,300,2012-10-15 00:54:00
9:01 PM,53.6,50.0,88,29.57,4.0,WNW,32.2,46.0,0.00,Rain,Light Rain,300,2012-10-15 01:01:00
9:18 PM,51.8,48.2,88,29.60,3.0,WNW,28.8,40.3,0.01,Rain,Rain,290,2012-10-15 01:18:00
9:27 PM,51.8,48.2,88,29.61,4.0,WNW,25.3,40.3,0.02,Rain,Light Rain,290,2012-10-15 01:27:00
9:54 PM,51.1,48.0,89,29.64,4.0,WNW,23.0,34.5,0.03,Rain,Light Rain,290,2012-10-15 01:54:00
10:36 PM,50.0,48.2,94,29.68,2.5,WNW,23.0,31.1,0.02,Rain,Light Rain,300,2012-10-15 02:36:00
10:45 PM,50.0,48.2,94,29.69,3.0,WNW,19.6,29.9,0.03,Rain,Light Rain,300,2012-10-15 02:45:00
10:54 PM,50.0,48.0,93,29.69,4.0,WNW,15.0,28.8,0.04,Rain,Light Rain,300,2012-10-15 02:54:00
11:30 PM,50.0,48.2,94,29.72,7.0,WNW,15.0,25.3,0.02,Rain,Light Rain,300,2012-10-15 03:30:00
11:54 PM,50.0,46.9,89,29.72,10.0,WNW,11.5,23.0,0.02,Rain,Light Rain,290,2012-10-15 03:54:00